RH
26 14 52 67 84 88 65 82 97 96 80 72 71 91 95 75 48 32 22 18 26 30 35 34 40 48 51 51 43 40 41 42 38 37 42 50 63 74 68 53 60 54 54 57 52 38 58 54 84
15 28 62 80 92 98 93 85 97 94 79 77 77 81 84 61 37 24 20 17 24 21 26 32 39 43 43 39 34 33 33 46 50 46 35 32 28 34 62 73 41 41 54 56 62 74 67 50 79
26 58 71 79 86 97 97 94 92 93 70 81 93 84 75 59 33 19 19 17 23 22 18 20 35 40 41 54 49 32 36 35 36 40 45 47 55 50 44 44 44 39 54 67 74 68 43 70 88
82 76 81 72 92 87 85 96 93 88 93 94 97 91 76 63 33 19 21 17 20 22 21 23 36 41 43 55 44 38 40 48 50 53 58 56 55 55 58 52 42 63 64 67 59 42 49 79 86
81 65 71 94 91 94 90 86 96 96 92 97 93 82 80 69 44 19 21 17 16 25 23 26 37 52 53 50 45 30 48 43 47 58 64 59 59 59 52 53 40 62 45 37 47 58 68 74 87
60 55 67 86 98 96 97 96 95 93 96 95 94 88 77 76 43 20 21 20 15 27 24 28 31 38 39 35 30 31 38 38 53 62 60 60 57 55 40 25 25 37 42 47 38 49 61 58 63
40 50 63 87 88 96 98 96 98 97 95 98 89 90 85 81 46 21 20 22 14 27 28 27 31 39 46 32 23 32 36 43 49 59 55 44 35 37 36 36 31 27 27 28 40 46 53 60 66
46 52 67 76 89 89 96 96 99 99 92 96 96 94 83 85 52 25 19 23 16 26 21 24 28 34 26 21 17 37 40 44 40 49 55 42 43 42 28 29 31 32 30 28 35 39 45 52 53
46 55 66 66 85 87 76 88 96 98 97 83 91 88 61 68 50 27 20 22 18 24 22 24 27 29 22 16 23 44 39 22 38 37 44 49 46 32 30 33 35 34 31 31 37 37 42 34 35
41 47 70 79 83 92 84 100 98 90 94 89 95 95 65 47 45 30 20 21 22 18 24 26 25 24 20 16 26 40 51 23 21 32 33 36 42 44 45 40 38 42 43 42 41 28 37 31 26
66 62 50 78 83 80 79 95 99 96 97 94 97 86 66 53 50 34 20 19 24 20 19 29 28 25 19 11 22 30 30 25 13 18 25 27 31 33 33 36 37 44 53 59 56 49 28 28 21
52 46 40 61 68 67 97 94 99 98 98 95 94 88 61 53 39 36 18 21 25 21 16 30 31 23 18 8 17 16 37 46 24 34 62 48 28 30 45 39 26 36 63 54 31 25 26 24 24
34 38 32 61 58 51 94 98 98 99 96 95 94 96 64 44 42 35 19 18 26 21 20 28 31 20 20 14 20 8 22 37 47 34 41 34 37 36 33 32 17 13 23 26 25 22 24 23 22
22 28 32 44 38 43 78 86 90 99 98 97 96 96 65 37 34 29 17 17 26 17 21 28 26 19 16 57 23 11 16 29 42 82 52 49 51 22 45 24 22 13 11 8 13 14 24 31 30
15 18 32 50 36 64 83 87 100 87 93 98 94 94 59 29 30 26 15 16 25 15 15 25 18 11 27 27 19 18 25 42 50 58 54 36 41 30 18 16 17 10 8 8 8 8 17 31 38
22 22 25 37 43 65 84 100 77 100 98 99 95 77 51 26 26 24 14 16 23 16 13 12 10 9 38 23 25 31 28 33 34 30 50 52 36 40 30 33 10 7 7 7 7 8 12 20 29
19 26 28 35 61 61 66 97 87 96 92 85 84 49 28 23 24 23 14 17 21 18 11 8 8 16 27 24 25 24 27 27 29 25 26 29 48 48 64 23 10 6 6 6 7 8 9 15 19
10 30 35 35 58 48 60 84 97 87 94 82 81 49 22 27 20 20 14 17 22 20 10 11 27 30 34 38 35 32 27 20 21 19 28 26 26 41 59 32 16 5 4 8 12 14 12 13 14
4 23 35 39 34 36 39 75 79 83 85 72 92 46 32 22 20 18 13 16 23 23 13 8 10 34 46 46 39 37 30 20 20 19 33 44 28 41 25 31 16 11 13 14 14 14 14 14 14
4 10 43 43 40 26 33 49 82 82 90 92 50 66 31 21 19 18 14 14 18 23 15 10 9 25 38 40 29 30 38 23 22 40 54 47 26 38 14 24 25 19 19 18 15 14 14 15 16
8 6 38 54 40 26 28 27 53 74 88 97 83 46 44 19 19 15 17 13 13 18 17 12 12 20 32 41 34 41 50 33 26 71 37 33 34 19 13 18 17 22 25 19 13 14 15 15 18
14 10 28 38 41 33 23 28 57 67 76 84 83 72 57 30 32 28 14 13 12 14 15 13 21 30 40 46 35 38 33 30 32 39 42 26 11 9 29 18 17 19 22 17 13 13 13 15 17
21 12 45 52 26 25 21 19 77 89 94 71 66 64 37 57 12 24 20 14 13 13 13 11 22 27 35 32 32 32 29 30 36 38 38 17 11 19 25 25 22 20 16 16 18 20 13 13 16
14 17 14 58 41 19 20 15 51 97 96 79 55 66 71 38 11 18 20 13 13 12 9 7 20 23 28 24 21 26 28 31 30 36 37 38 28 34 38 31 32 34 34 22 11 14 16 9 13
10 10 15 20 36 27 29 25 35 95 84 100 79 64 56 52 36 12 19 14 10 14 9 6 8 28 22 19 17 18 21 26 24 35 36 33 26 27 28 22 26 27 30 34 26 20 6 11 10
9 10 10 12 19 46 46 59 44 51 82 68 35 40 87 57 49 19 14 21 20 17 13 10 6 9 30 26 17 15 17 22 23 30 34 27 18 24 31 39 30 23 22 26 19 14 5 6 7
13 11 10 10 13 24 53 63 67 71 60 49 43 14 51 53 59 46 27 21 22 21 10 10 9 6 8 22 26 15 15 19 21 25 30 32 35 40 48 44 25 16 15 18 22 35 17 5 5
17 18 15 10 14 19 21 56 65 55 45 42 29 25 12 35 53 59 65 28 23 28 24 10 8 8 7 9 13 17 15 16 18 20 25 26 27 24 19 15 17 12 12 16 18 25 21 9 5
20 21 19 23 21 19 21 18 26 30 26 32 23 18 21 18 33 36 61 70 32 38 38 25 10 9 10 6 8 11 15 15 15 17 20 22 20 17 16 14 10 10 9 13 10 9 12 16 12
16 18 24 25 29 32 23 16 15 20 22 20 42 24 12 17 27 40 57 73 64 43 45 44 35 40 20 12 7 7 9 14 14 14 15 19 23 21 17 14 12 11 11 10 10 10 11 9 8
Wind_Speed
4 5 2 3 8 10 7 7 9 14 10 7 11 12 9 8 9 10 12 14 13 13 12 13 14 15 16 16 15 14 12 10 7 6 6 4 3 3 4 4 5 6 6 7 7 8 8 8 8
5 5 1 6 10 10 9 5 14 16 12 11 7 10 10 7 12 10 13 13 13 13 13 13 15 15 16 14 13 12 10 8 6 5 4 4 3 3 4 6 7 7 8 8 10 10 9 10 10
5 3 3 7 14 16 9 15 18 11 12 12 10 8 11 9 10 11 12 15 13 13 14 14 14 14 14 13 11 10 10 9 9 7 6 4 1 2 4 7 8 8 9 10 12 11 13 13 14
5 2 5 7 10 13 9 17 15 12 8 14 14 9 9 9 7 11 12 15 13 13 14 15 14 14 14 13 10 11 11 12 10 9 7 6 7 7 8 11 12 10 11 13 12 14 16 16 20
5 3 4 8 7 2 18 13 19 11 7 17 8 10 8 8 7 10 12 14 14 14 13 15 15 14 14 13 12 13 14 12 12 13 14 15 15 17 18 19 16 18 22 18 18 17 18 17 17
4 3 3 6 12 2 14 12 5 7 9 6 10 10 8 5 8 8 11 14 10 15 14 14 16 15 15 13 14 13 14 14 16 19 20 21 21 22 21 20 20 21 21 22 21 19 18 18 15
6 3 2 7 9 15 3 3 6 7 2 12 12 11 8 5 6 7 9 11 12 11 14 14 16 16 15 15 14 13 15 16 19 20 21 23 22 21 19 19 20 21 21 21 21 20 18 18 16
6 3 3 2 6 12 6 8 9 7 6 10 12 14 9 8 6 7 8 9 10 10 12 14 16 16 15 16 15 15 15 16 19 19 20 20 20 18 18 18 19 19 18 19 18 18 18 18 16
8 6 7 3 4 9 7 10 1 7 7 9 14 9 5 11 8 9 7 8 10 9 10 13 15 16 15 16 16 15 15 17 18 20 19 18 15 16 16 16 15 16 16 17 16 16 15 15 15
12 10 9 4 5 7 8 7 6 6 15 12 12 8 6 10 10 9 7 8 9 8 11 12 15 16 17 16 15 14 14 16 17 18 18 19 16 13 12 12 13 14 15 14 17 14 14 13 15
15 15 9 7 9 4 7 5 5 7 16 14 15 12 8 8 11 10 7 7 7 8 11 14 14 16 17 16 15 13 14 13 17 16 16 17 16 13 14 13 13 14 14 13 11 12 12 13 15
20 18 14 12 4 10 6 5 3 4 7 15 13 8 6 6 11 11 7 9 8 8 11 15 15 15 17 15 13 11 12 12 14 13 9 11 15 14 13 14 14 14 16 14 12 13 14 12 16
22 21 14 14 16 10 6 5 1 6 9 11 13 10 7 7 10 10 7 7 9 9 13 14 17 17 17 15 12 10 10 9 12 11 7 12 13 12 12 13 13 13 15 14 12 14 15 14 15
24 21 15 15 12 14 13 4 4 4 11 13 15 13 10 12 15 15 11 11 10 11 13 15 17 19 17 15 12 11 9 9 9 10 7 7 9 11 11 11 12 12 13 15 13 14 15 14 14
15 17 15 15 16 15 11 7 2 11 13 22 18 12 10 11 15 15 12 15 13 13 14 17 18 18 17 14 13 10 10 9 7 7 6 5 4 7 9 9 11 11 12 13 14 12 15 15 13
11 9 14 17 20 15 11 7 2 7 14 22 16 13 10 13 17 15 13 12 12 13 16 17 17 15 14 13 12 11 9 7 7 9 4 3 4 4 7 7 7 11 11 12 13 10 13 14 12
16 11 13 19 21 20 12 6 6 8 13 10 14 12 10 11 16 16 16 15 15 14 17 16 17 14 14 14 11 10 11 8 4 7 4 3 3 4 5 7 7 9 10 12 14 12 10 11 11
19 19 17 21 23 25 20 14 10 11 11 12 7 9 5 15 18 19 17 15 14 15 16 17 16 16 13 11 11 9 6 8 3 2 3 2 3 3 5 7 8 10 12 12 14 13 11 11 10
22 24 20 21 26 22 21 14 12 10 7 14 11 11 7 15 18 21 20 20 18 17 18 19 18 16 13 11 9 9 5 6 4 4 4 3 4 4 5 7 9 12 13 12 11 10 11 10 10
27 27 24 22 23 22 22 21 15 16 5 7 20 12 9 11 16 20 21 18 21 21 21 21 20 18 15 11 10 10 6 5 4 5 5 4 8 8 9 10 10 10 12 10 10 9 11 10 9
26 25 28 29 29 21 22 22 19 14 12 10 19 16 11 12 15 19 20 22 22 21 21 25 23 20 16 14 12 10 8 6 6 5 6 8 9 11 11 11 11 11 10 9 8 9 9 9 10
26 24 31 32 31 27 22 20 18 15 12 10 12 21 15 11 14 17 21 22 20 23 25 26 23 21 17 16 14 12 11 10 9 8 8 10 11 11 11 11 12 12 10 10 8 9 8 8 9
27 29 35 37 36 32 26 21 23 21 15 9 10 10 15 15 15 17 16 19 23 23 24 27 23 20 17 16 14 11 10 11 10 12 11 10 13 12 12 10 10 11 9 10 8 8 7 9 8
32 33 35 40 38 34 29 24 19 25 15 10 10 7 16 22 18 18 20 21 18 21 21 23 25 20 19 16 14 11 12 13 13 14 14 12 11 13 11 9 8 8 8 7 6 6 7 10 9
30 29 33 37 38 34 30 25 20 15 14 15 8 7 17 21 18 18 16 15 13 14 17 18 23 22 19 18 16 13 14 14 14 15 14 14 15 14 12 9 8 8 8 7 6 4 7 10 9
34 33 31 35 38 39 32 28 27 23 22 18 19 15 14 28 19 18 17 17 15 16 19 20 21 23 23 20 18 17 16 17 16 16 15 14 15 15 10 8 7 6 7 6 6 5 5 8 10
34 36 36 37 39 40 39 34 29 29 27 25 22 24 16 16 15 15 14 16 17 16 20 24 23 23 24 24 22 20 19 18 19 19 17 15 14 12 11 9 5 5 4 7 7 6 5 8 9
37 37 38 38 39 39 37 43 41 37 35 33 31 28 27 25 25 19 16 19 15 13 16 20 24 24 25 26 25 23 22 22 22 22 20 20 16 14 12 10 7 6 7 7 7 5 5 5 8
40 40 41 40 42 41 35 38 42 43 38 36 30 32 30 32 33 29 21 18 22 21 20 15 14 21 23 25 25 25 23 24 24 23 23 20 18 16 14 12 9 8 7 9 7 6 5 3 3
41 43 41 42 42 41 41 42 42 37 36 38 33 34 32 32 32 31 30 33 30 30 27 20 16 13 16 25 27 27 27 27 26 23 22 21 21 19 18 14 12 11 8 8 8 6 4 3 3
Wind_Direction
203 234 216 293 297 290 275 312 143 147 139 142 127 115 108 79 84 81 84 92 95 89 98 102 100 93 89 92 99 106 113 115 117 123 123 133 140 158 164 137 112 106 110 120 121 107 100 95 94
175 210 268 314 316 308 237 184 152 152 137 124 127 110 110 104 75 93 99 89 93 91 100 104 99 94 90 91 91 93 96 97 90 75 68 62 77 138 137 138 112 110 117 120 109 94 89 101 105
165 207 291 323 336 340 254 182 146 146 131 137 149 108 101 80 86 98 100 97 95 92 102 107 101 99 96 92 87 87 84 80 69 59 46 35 54 105 107 117 115 112 106 107 105 108 109 103 103
168 179 295 347 1 42 64 174 140 148 145 139 126 118 98 81 73 101 106 101 100 97 103 108 106 105 101 98 89 90 87 76 65 54 60 70 78 95 112 111 92 98 111 121 117 101 100 98 103
175 230 311 6 357 23 109 119 143 147 120 140 115 126 115 89 68 102 109 105 110 108 107 113 110 109 106 106 103 96 87 78 68 73 70 72 89 96 101 101 96 98 105 99 95 97 97 95 103
204 233 312 342 333 279 139 114 110 104 142 127 133 130 121 98 81 109 109 109 113 117 116 122 119 114 110 107 101 99 89 81 77 74 74 79 87 93 97 102 103 103 99 95 93 95 96 95 101
209 241 346 347 346 120 70 137 15 126 231 166 141 141 128 93 83 100 110 116 119 116 125 130 127 122 119 115 111 103 89 84 85 84 84 83 90 90 90 97 93 96 99 96 93 92 90 90 92
223 229 252 290 58 49 68 56 80 128 202 158 138 138 151 103 88 84 105 114 113 117 130 137 132 126 126 122 112 106 98 92 86 89 89 87 91 94 87 87 89 87 91 94 91 89 89 90 92
233 224 257 232 97 75 64 54 211 204 158 135 137 162 119 111 109 98 110 114 117 120 132 141 138 132 129 123 118 110 103 91 91 83 85 93 92 89 93 95 90 87 87 93 92 91 91 90 91
225 229 248 260 117 104 97 109 37 2 132 136 128 161 114 106 104 101 110 124 127 128 136 145 143 139 136 129 118 114 106 99 94 96 92 89 86 93 95 100 95 89 87 97 89 94 94 93 92
218 220 217 196 144 126 47 109 69 27 159 156 147 159 136 121 116 108 92 99 128 133 147 149 150 146 139 130 122 115 108 103 98 97 97 97 94 90 99 93 92 93 88 80 83 95 102 95 92
224 221 219 220 214 123 70 103 70 85 168 189 153 142 169 163 127 117 119 133 146 142 151 152 153 149 140 129 120 112 101 109 103 105 90 81 86 92 87 78 81 81 89 83 75 79 91 89 93
225 227 222 230 253 216 150 135 285 244 260 170 156 152 199 176 130 122 129 137 149 144 150 159 151 148 140 132 124 120 104 105 102 104 87 96 86 88 90 87 90 88 90 95 88 75 92 91 91
227 229 224 236 242 213 204 173 159 309 253 219 178 167 188 191 154 143 156 141 156 139 155 157 152 148 142 131 133 126 104 98 108 84 95 84 76 97 80 92 87 84 85 85 88 78 85 89 89
229 231 222 237 240 216 170 195 288 271 264 185 181 166 191 193 168 156 165 138 159 140 158 154 152 151 144 131 136 112 114 110 99 87 101 95 96 95 94 98 96 91 91 83 87 85 89 86 83
225 226 211 230 229 207 172 173 158 105 111 165 178 177 187 195 172 160 171 147 157 149 159 151 149 151 144 130 129 121 116 115 117 111 117 108 104 80 98 110 92 97 90 87 88 90 88 93 92
217 224 206 199 204 208 186 156 125 121 148 176 192 203 175 204 169 166 174 161 161 156 158 158 153 151 146 133 126 129 126 128 135 116 141 165 141 103 77 93 108 99 93 92 101 106 100 104 103
214 219 213 208 206 206 198 177 148 142 168 210 248 224 189 187 171 171 178 166 169 162 167 161 158 154 150 150 143 127 152 128 141 164 168 174 128 82 52 90 101 109 106 102 104 114 115 117 110
209 216 218 216 212 212 209 185 187 155 160 206 218 212 183 201 183 182 183 171 172 172 172 168 164 162 156 156 157 151 168 139 163 188 122 161 114 107 120 110 99 106 104 99 105 112 115 116 109
204 205 210 220 225 214 214 201 190 168 152 176 199 216 214 198 195 190 188 173 172 172 172 176 169 177 174 161 163 153 155 138 135 123 130 153 127 135 136 120 123 123 121 126 126 124 113 107 108
206 202 206 216 226 219 221 217 212 183 174 167 175 195 199 193 208 195 183 192 175 174 177 175 176 176 177 161 155 155 156 147 139 150 134 139 131 135 133 128 125 128 120 126 121 115 104 116 128
205 201 207 219 229 227 221 209 204 198 180 186 207 214 207 191 189 217 214 189 179 179 182 180 181 174 174 168 169 181 174 156 149 144 132 135 136 135 128 123 123 122 130 120 121 97 97 126 125
209 199 204 217 229 231 229 219 206 198 191 204 205 221 214 215 189 187 212 210 189 183 183 183 185 178 176 174 178 180 172 155 155 148 137 133 131 134 124 125 122 122 114 113 114 100 100 107 132
218 211 209 214 226 233 231 224 216 206 172 170 198 188 199 190 183 181 202 213 207 192 183 187 188 181 178 181 176 186 172 170 162 157 147 148 150 144 131 127 119 115 115 109 105 106 103 104 138
222 221 223 222 227 234 237 232 222 216 176 163 176 172 211 195 206 190 202 204 202 199 183 188 195 191 185 179 180 182 182 180 170 166 163 166 165 155 140 152 143 127 124 119 116 110 106 117 134
227 225 225 228 229 227 228 232 233 224 206 209 210 190 177 199 212 202 200 192 186 189 190 195 189 200 202 191 186 185 193 183 181 178 174 179 175 167 164 178 156 123 117 117 115 111 117 123 137
230 233 228 226 231 229 224 227 230 236 233 224 229 215 178 198 200 201 209 204 211 208 200 202 195 197 203 210 204 193 194 198 187 185 182 188 193 192 182 197 168 135 130 130 131 125 133 133 132
228 232 231 230 230 230 226 227 229 229 237 238 223 228 203 202 197 205 206 198 209 217 220 222 211 202 203 206 212 209 199 203 199 191 194 197 202 204 195 203 188 165 154 160 152 143 117 119 142
232 230 231 231 235 236 223 223 230 230 230 234 232 226 221 198 200 208 201 200 197 204 208 200 227 223 215 211 213 214 212 212 212 204 202 203 206 207 214 210 199 194 172 169 162 152 145 155 135
233 235 234 236 234 235 237 225 229 221 222 228 225 227 222 199 194 192 199 203 203 205 208 193 195 204 219 220 216 214 212 219 218 216 217 214 216 213 217 218 211 213 207 190 181 189 187 189 210